Погода в Терехово

Россия / Ярославская область     58°41′35″N   39°35′07″E
темп.,
°C
ветер,
м/с
пор.,
м/с
влажн.,
%
обл.,
%
осадки,
мм/ч
давл.,
гПа
погр.,
м
18 апреля, вс
вс1800:00+4св26790 0.0 1027112
03:00+3св2883100 0.0 1028163
06:00+3св31078100 0.0 1028249
09:00+7всв4860100 0.0 1028526
12:00+10св5749100 0.0 10271233
15:00+11всв5750100 0.0 10271655
18:00+6всв5868100 0.0 10291005
21:00+5всв4968100 0.0 1030948
19 апреля, пн
пн1900:00+3всв4107280 0.0 1031471
03:00+1всв410776 0.0 1031392
06:00−1всв411785 0.0 1031424
09:00+4в58515 0.0 10321015
12:00+7в57395 0.0 10311557
15:00+9в57395 0.0 10301833
18:00+7в46455 0.0 10301577
21:00+3в310635 0.0 1031333
20 апреля, вт
вт2000:00+1в310720 0.0 1032310
03:000в310780 0.0 1031290
06:000в3117255 0.0 1031372
09:00+5вюв594189 0.0 1030893
12:00+8вюв5841100 0.0 10281429
15:00+10вюв5841100 0.0 10261839
18:00+9вюв4950100 0.0 10241549
21:00+5в31165100 0.0 1023359
21 апреля, ср
ср2100:00+4в51260100 0.0 1021674
03:00+3в51459100 0.0 1017746
06:00+3вюв61559100 0.1 1013968
09:00+2вюв71787100 0.8 10111031
12:00+2вюв61490100 0.8 1008903
15:00+1вюв61696100 1.3 1007763
18:00+2вюв61596100 1.1 1005892
21:00+4ююв61393100 1.5 10041373
22 апреля, чт
чт2200:00+3ююв71482100 0.1 10041376
03:00+2ююз71496100 1.8 10061133
06:00+1ююз51197100 0.8 1009946
09:00+2юз41196100 1.2 1012683
12:00+4юз51086100 0.4 1014925
15:00+7юз487699 0.5 10161409
18:00+8ююз257697 0.1 1017262
21:00+4ююв2791100 0.1 1018127